Dr. Bill's Marine Weather

Coastal Marine Forecast

       Alabama   Florida   Louisiana   Mississippi

Printer Friendly AL  FL  LA  MS

Data Buoys:   Western Gulf of Mexico    Eastern Gulf of Mexico
**********************************************************************
  Alabama
900 PM CST SUN DEC 21 2014

ALZ051>064-220400-
SOUTHWEST ALABAMA
  
CITY           SKY/WX    TMP DP  RH WIND       PRES   REMARKS
MOBILE         FOG       53  53 100 E5        30.00F VSB 3/4          
BROOKLEY FIELD CLOUDY    58  55  90 E6        30.02F                  
EVERGREEN      CLOUDY    56  54  93 E6        30.02F FOG              
**********************************************************************
  Florida
1000 PM EST SUN DEC 21 2014

FLZ001>010-012>015-112-114-115-220400-
PANHANDLE FLORIDA
  
CITY           SKY/WX    TMP DP  RH WIND       PRES   REMARKS
PENSACOLA      CLOUDY    53  53 100 E5        30.01F                  
PENSACOLA NAS  CLOUDY    57  54  89 NE7       30.01S                  
MILTON NAS     CLOUDY    55  53  93 E5        30.01F                  
CRESTVIEW      CLOUDY    54  53  97 E5        30.03F FOG              
DUKE FIELD     CLOUDY    55  54  97 VRB2      30.01F FOG              
VALPARAISO     CLOUDY    55  54  95 VRB3      30.01F FOG              
MARY ESTHER    CLOUDY    56  51  86 E7        30.00F                  
PANAMA CITY    LGT RAIN  56  54  93 NE3       30.02R FOG              
TYNDALL AFB    CLOUDY    57  57 100 VRB5      30.02S                  
APALACHICOLA   FOG       60  57  89 NE5       30.03F VSB 1/2          

STATION/POSITION SKY/WX   TEMP    WIND        PRES    WAVE   SWELL
                          AIR SEA DIR/SP/G            HT/PER HT/PER
                          (F)     (DEG/KT/KT) (MB)    (FT/S) (FT/S)
30.1N   87.6W              63 70   70/ 12/ 14 1014.5F   2/ 4
29.2N   88.2W              69 74   70/ 12/ 16 1013.5F   2/ 6   2/ 8
28.7N   86.0W              69 75   70/ 14/ 16 1015.3F   3/ 5   2/ 8
PANAMA CITY BEAC           56 61   40/  6/  9 1016.3R
CAPE SAN BLAS    NOT AVBL
TOWER C                    60      70/ 13/ 14 1016.3F
28.5N   84.5W              71 73   CALM  /  4 1016.0F   3/ 6   2/ 6

**********************************************************************
  Louisiana
900 PM CST SUN DEC 21 2014

LAZ040-048-061>063-065-066-069-220400-
SOUTHEAST LOUISIANA
  
CITY           SKY/WX    TMP DP  RH WIND       PRES   REMARKS
N.O. AUDUBON     N/A     56  55  96 MISG        N/A                   
N.O. INTL ARPT CLOUDY    56  52  86 E6        29.98S FOG              
N.O. LAKEFRONT CLOUDY    57  53  86 SE10      30.00R                  
N.O. DOWNTOWN* CLOUDY    55  50  82 E5        29.99R                  
SLIDELL        CLOUDY    54  51  90 CALM      29.98R FOG              
BATON ROUGE    CLOUDY    52  49  89 CALM      29.97S                  
BOOTHVILLE     CLOUDY    57  57 100 E3        29.98S FOG              
BELLE CHASSE   CLOUDY    56  54  93 E5        29.98R                  
BOGALUSA*        N/A     54  50  86 CALM      30.00S                  
GALLIANO*      CLOUDY    58  56  94 MISG      29.98S FOG              
NEW ROADS*     CLOUDY    51  50  96 CALM      29.97F FOG              
GONZALES*      MOCLDY    50  50 100 CALM      29.98R FOG              
HAMMOND*       NOT AVBL                                               
HOUMA*         CLOUDY    54  53  95 E5        29.97S FOG              
PORT FOURCHON* CLOUDY    59  57  94 E10G16    29.99F FOG              

**********************************************************************
  Mississippi
900 PM CST SUN DEC 21 2014

MSZ080>082-220400-
COASTAL MISSISSIPPI
  
CITY           SKY/WX    TMP DP  RH WIND       PRES   REMARKS
BAY ST LOUIS   CLOUDY    55  52  88 E3        29.99S                  
BILOXI         CLOUDY    55  55 100 E6        29.99S                  
PASCAGOULA     CLOUDY    56  54  93 E6        29.99F                  
GULFPORT       CLOUDY    56  53  90 E8        29.98F FOG              
About Us | Coastal Marine Forecast | Offshore Marine Forecast
Gulf Coast Tides | Hourly Weather Observations | Weather Radar
Sea Surface Temperatures | Solar/Lunar Data | Hurricane Advisories | Home
     
USA Logo Dr. Bill's Marine Weather
Last date changed: December 9, 2014 4:08 PM
www.gulfmarineweather.com/hourlyweatherobservations.shtml
Contact Us